Home   Weather   Fairbanks   Past weeks
Flag for USA

Past Weather in Fairbanks, Alaska, USA — Yesterday and Last 2 Weeks

Now
36 °F

Light snow. Mostly cloudy.


Feels Like: 36 °F
Forecast: 45 / 35 °F
Wind: No wind

Location: Fairbanks International Airport

Current Time: Mar 26, 2019 at 6:54:56 am

Latest Report: Mar 26, 2019 at 5:53 am


Visibility: 9 mi

Pressure: 30.09 "Hg

Humidity: 89%

Dew Point: 33 °F

Location of FairbanksLocation

Past Weather in Fairbanks — Graph

°F

Fairbanks Temperature Yesterday

Maximum temperature yesterday: 41 °F (at 3:53 am)
Minimum temperature yesterday: 34 °F (at 12:53 am)
Average temperature yesterday: 37 °F

High & Low Weather Summary for the Past Weeks

 TemperatureHumidityPressure
High52 °F (Mar 21, 3:53 pm)92% (Mar 12, 8:41 am)30.16 "Hg (Mar 12, 8:41 am)
Low9 °F (Mar 15, 6:53 am)29% (Mar 15, 3:53 pm)29.02 "Hg (Mar 11, 4:53 am)
Average32 °F65%29.63 "Hg
* Reported Mar 11 4:53 am — Mar 26 4:53 am, Fairbanks. Weather by CustomWeather, © 2019

Note: Actual official high and low records may vary slightly from our data, if they occured in-between our weather recording intervals... More about our weather records

Advertising

Fairbanks Weather History for the Previous 24 Hours

Scroll right to see more
 ConditionsComfort  
Time TempWeatherWind HumidityBarometerVisibility
4:53 am
Tue, Mar 26
36 °FMostly cloudy.No wind89%30.09 "Hg10 mi
3:53 am36 °FLight rain. Mostly cloudy.3 mph85%30.08 "Hg10 mi
2:53 am36 °FLight rain. Mostly cloudy.No wind89%30.09 "Hg10 mi
1:53 am35 °FLight rain. Mostly cloudy.3 mph92%30.08 "Hg10 mi
12:53 am36 °FLight rain. Overcast.5 mph85%30.08 "Hg10 mi
11:53 pm
Mon, Mar 25
37 °FLight rain. Overcast.3 mph86%30.08 "Hg10 mi
10:53 pm36 °FOvercast.7 mph89%30.08 "Hg10 mi
9:53 pm37 °FPassing clouds.6 mph82%30.08 "Hg10 mi
8:53 pm38 °FPassing clouds.6 mph83%30.08 "Hg10 mi
7:53 pm36 °FPartly sunny.5 mph85%30.08 "Hg10 mi
6:53 pm37 °FPartly sunny.6 mph86%30.09 "Hg10 mi
5:53 pm37 °FPartly sunny.7 mph82%30.09 "Hg10 mi
4:53 pm40 °FBroken clouds.3 mph77%30.10 "Hg10 mi
3:53 pm41 °FCloudy.No wind76%30.10 "Hg10 mi
2:53 pm39 °FCloudy.3 mph82%30.11 "Hg10 mi
1:53 pm37 °FFog.3 mph86%30.12 "Hg6 mi
12:53 pm37 °FLight rain. Fog.5 mph86%30.13 "Hg5 mi
12:00 pm35 °FLight rain. Fog.3 mph88%30.11 "Hg5 mi
10:53 am35 °FLight rain. Fog.3 mph88%30.14 "Hg5 mi
9:53 am35 °FLight rain. Fog.3 mph88%30.14 "Hg3 mi
8:53 am35 °FLight rain. Fog.6 mph88%30.13 "Hg3 mi
8:44 am35 °FLight rain. Fog.6 mph88%30.11 "Hg3 mi
7:53 am36 °FLight rain. Mostly cloudy.5 mph89%30.13 "Hg9 mi
6:53 am37 °FLight rain. Mostly cloudy.7 mph86%30.11 "Hg9 mi
Weather by CustomWeather, © 2019

See weather overview